Temp
-7 -7 -7 -8 -9 -9 -9 -9 -9 -9 -9 -10 -10 -10 -10 -10 -10 -10 -10 -10 -10 -9 -9 -9 -10 -10 -10 -11 -11 -10 -10 -10 -10 -10 -10 -10 -10 -10 -9 -8 -8 -7 -7 -8 -8 -8 -8 -8 -7 -7 -8 -8 -9 -8
-7 -7 -8 -8 -9 -9 -9 -9 -9 -9 -9 -10 -10 -10 -10 -10 -10 -10 -10 -10 -10 -9 -9 -9 -10 -10 -10 -10 -10 -10 -11 -11 -11 -11 -11 -10 -10 -10 -9 -9 -9 -8 -8 -9 -8 -8 -9 -9 -9 -9 -9 -8 -8 -8
-8 -8 -8 -9 -9 -9 -9 -9 -9 -9 -9 -9 -9 -10 -10 -10 -10 -10 -10 -10 -10 -9 -9 -9 -9 -10 -10 -10 -10 -10 -10 -10 -11 -11 -11 -10 -10 -9 -9 -9 -8 -9 -8 -9 -9 -9 -9 -9 -9 -9 -9 -9 -8 -8
-8 -8 -8 -9 -9 -9 -9 -9 -9 -9 -9 -9 -9 -9 -10 -10 -10 -11 -10 -10 -10 -10 -9 -9 -9 -9 -9 -10 -10 -10 -10 -10 -10 -10 -10 -10 -10 -9 -9 -9 -8 -8 -8 -8 -9 -9 -9 -9 -9 -9 -9 -8 -8 -9
-8 -8 -9 -9 -9 -9 -9 -9 -9 -9 -9 -9 -9 -9 -9 -10 -10 -10 -10 -10 -10 -10 -10 -9 -9 -9 -10 -10 -10 -10 -10 -10 -10 -9 -10 -10 -9 -9 -8 -8 -8 -8 -8 -8 -9 -9 -9 -10 -10 -10 -9 -9 -9 -9
-9 -9 -9 -9 -9 -9 -9 -9 -9 -8 -8 -8 -8 -9 -9 -9 -10 -10 -10 -11 -11 -10 -10 -9 -9 -10 -10 -10 -10 -10 -9 -9 -9 -9 -9 -9 -9 -9 -9 -8 -8 -8 -9 -9 -9 -9 -9 -10 -10 -10 -9 -9 -9 -9
-9 -9 -9 -9 -9 -9 -9 -9 -8 -8 -8 -8 -8 -8 -9 -9 -10 -10 -10 -11 -11 -11 -11 -10 -10 -10 -10 -10 -10 -10 -10 -10 -10 -10 -9 -9 -9 -10 -9 -9 -9 -9 -9 -9 -9 -10 -9 -10 -10 -9 -9 -9 -9 -9
-9 -9 -9 -9 -9 -9 -9 -9 -8 -8 -8 -8 -8 -8 -9 -9 -10 -10 -11 -11 -11 -11 -11 -11 -10 -10 -10 -10 -9 -10 -9 -10 -9 -9 -9 -9 -9 -9 -9 -9 -9 -9 -9 -9 -10 -10 -11 -11 -10 -9 -9 -9 -9 -9
-9 -9 -9 -9 -9 -9 -9 -9 -8 -8 -8 -8 -8 -8 -8 -9 -9 -10 -10 -11 -11 -11 -11 -10 -10 -10 -10 -10 -10 -10 -10 -10 -10 -9 -9 -9 -9 -9 -9 -9 -9 -9 -9 -10 -10 -10 -11 -10 -10 -9 -9 -9 -9 -9
-9 -9 -9 -9 -9 -9 -9 -9 -9 -9 -9 -9 -9 -8 -8 -9 -9 -10 -11 -11 -12 -11 -11 -9 -10 -9 -10 -10 -10 -10 -10 -10 -10 -9 -9 -9 -9 -9 -9 -9 -9 -9 -10 -10 -11 -10 -10 -10 -10 -10 -9 -9 -9 -9
-9 -9 -9 -9 -9 -9 -9 -9 -9 -9 -9 -9 -9 -9 -9 -9 -10 -11 -11 -11 -11 -11 -10 -9 -9 -10 -10 -10 -10 -10 -10 -10 -10 -9 -9 -9 -9 -9 -9 -9 -9 -9 -10 -10 -10 -10 -10 -10 -10 -10 -10 -10 -10 -10
-9 -9 -9 -9 -9 -9 -9 -9 -9 -9 -9 -9 -9 -9 -10 -10 -11 -12 -12 -11 -11 -10 -10 -10 -10 -10 -10 -11 -10 -10 -10 -10 -10 -10 -10 -10 -9 -9 -9 -9 -10 -10 -10 -10 -10 -10 -10 -10 -10 -11 -10 -10 -10 -10
-9 -9 -9 -9 -9 -9 -9 -9 -10 -10 -9 -10 -10 -10 -9 -10 -12 -12 -11 -10 -10 -10 -10 -10 -10 -10 -10 -10 -10 -10 -11 -10 -10 -10 -10 -9 -9 -9 -9 -10 -10 -10 -10 -10 -11 -11 -11 -11 -11 -11 -11 -11 -11 -11
-9 -9 -9 -9 -9 -9 -9 -10 -10 -10 -10 -10 -10 -10 -9 -10 -9 -8 -9 -10 -10 -10 -10 -10 -10 -10 -11 -11 -11 -11 -11 -11 -11 -10 -10 -9 -10 -10 -10 -10 -10 -10 -10 -11 -11 -11 -11 -11 -11 -11 -11 -11 -11 -11
-9 -9 -9 -9 -9 -10 -10 -10 -10 -10 -10 -11 -10 -10 -9 -9 -9 -9 -10 -10 -10 -10 -10 -10 -11 -11 -11 -11 -11 -11 -11 -11 -10 -10 -9 -10 -10 -10 -10 -10 -11 -11 -11 -12 -12 -12 -12 -12 -12 -12 -12 -12 -12 -12
-10 -9 -9 -9 -10 -10 -10 -10 -10 -11 -11 -11 -10 -8 -8 -8 -8 -9 -9 -9 -9 -10 -11 -11 -11 -11 -11 -11 -11 -11 -11 -10 -10 -10 -10 -10 -11 -11 -11 -11 -11 -12 -12 -12 -12 -12 -12 -12 -13 -13 -13 -13 -14 -13
-10 -10 -9 -9 -10 -10 -10 -11 -11 -11 -11 -10 -8 -8 -9 -8 -9 -9 -9 -10 -10 -10 -11 -11 -11 -11 -11 -11 -11 -11 -11 -10 -10 -10 -10 -11 -11 -11 -12 -11 -11 -11 -12 -12 -12 -12 -13 -13 -13 -13 -14 -15 -15 -15
-10 -10 -10 -10 -10 -10 -10 -11 -11 -11 -10 -9 -9 -9 -9 -9 -9 -9 -10 -10 -10 -11 -11 -11 -11 -11 -11 -11 -11 -10 -11 -11 -11 -11 -11 -11 -11 -11 -11 -11 -11 -12 -12 -12 -12 -12 -13 -13 -13 -14 -14 -15 -15 -15
-10 -10 -10 -10 -10 -11 -11 -11 -12 -11 -10 -9 -9 -9 -9 -9 -9 -9 -10 -10 -11 -11 -12 -12 -12 -11 -11 -11 -11 -11 -11 -11 -11 -11 -11 -11 -11 -11 -11 -11 -11 -11 -12 -12 -12 -12 -13 -14 -14 -14 -15 -15 -15 -16
-11 -11 -11 -11 -11 -12 -12 -12 -11 -11 -10 -9 -9 -9 -9 -9 -9 -9 -9 -10 -10 -12 -12 -12 -10 -10 -11 -11 -11 -11 -11 -12 -12 -11 -12 -12 -12 -12 -12 -12 -11 -11 -12 -12 -12 -13 -13 -14 -14 -15 -16 -17 -17 -16
-12 -12 -12 -12 -12 -11 -12 -13 -12 -11 -11 -10 -9 -9 -9 -9 -9 -9 -9 -10 -11 -12 -10 -9 -10 -10 -11 -11 -12 -12 -12 -12 -12 -12 -12 -12 -12 -12 -12 -12 -12 -12 -12 -12 -12 -13 -13 -14 -15 -16 -16 -17 -17 -17
-13 -13 -13 -13 -12 -12 -13 -12 -12 -12 -11 -11 -10 -10 -10 -9 -10 -9 -10 -10 -9 -9 -9 -10 -10 -11 -11 -12 -12 -12 -13 -12 -12 -12 -12 -13 -13 -12 -12 -12 -12 -12 -12 -12 -12 -13 -14 -15 -16 -17 -17 -17 -17 -17
-13 -13 -13 -13 -14 -14 -13 -13 -13 -12 -12 -12 -11 -11 -10 -10 -10 -10 -11 -9 -9 -10 -10 -10 -10 -11 -11 -12 -12 -12 -13 -13 -13 -12 -12 -13 -13 -13 -12 -12 -12 -12 -12 -12 -13 -13 -14 -15 -16 -17 -17 -17 -17 -17
-14 -14 -14 -14 -14 -14 -14 -13 -12 -12 -12 -11 -11 -11 -11 -11 -12 -12 -11 -9 -10 -10 -10 -10 -11 -11 -11 -12 -12 -12 -13 -13 -13 -13 -13 -13 -13 -12 -12 -12 -12 -12 -12 -13 -13 -13 -14 -15 -16 -17 -17 -17 -17 -17
-14 -14 -14 -14 -14 -13 -14 -13 -13 -12 -12 -11 -12 -12 -12 -12 -12 -12 -12 -10 -10 -11 -11 -11 -11 -11 -11 -11 -11 -12 -13 -13 -13 -13 -13 -13 -13 -13 -12 -12 -12 -12 -13 -13 -13 -14 -15 -15 -16 -17 -17 -17 -17 -17
-14 -14 -13 -14 -14 -13 -13 -13 -13 -12 -12 -13 -13 -13 -12 -12 -13 -12 -11 -10 -10 -11 -12 -12 -11 -12 -12 -12 -12 -12 -13 -13 -12 -12 -12 -13 -13 -13 -14 -13 -13 -13 -13 -13 -14 -14 -15 -16 -16 -17 -17 -17 -17 -17
-14 -13 -13 -13 -13 -13 -13 -12 -13 -13 -13 -13 -13 -13 -13 -13 -12 -12 -11 -11 -12 -12 -12 -12 -12 -12 -13 -12 -12 -12 -13 -13 -13 -13 -13 -13 -13 -14 -14 -14 -13 -13 -14 -14 -14 -15 -15 -16 -17 -17 -17 -18 -18 -18
-13 -13 -13 -13 -13 -14 -13 -13 -13 -13 -13 -13 -13 -13 -12 -12 -12 -12 -12 -12 -13 -13 -13 -13 -13 -14 -13 -13 -13 -13 -13 -13 -14 -14 -14 -14 -14 -15 -14 -14 -14 -14 -14 -14 -15 -15 -15 -16 -17 -17 -17 -18 -18 -18
-14 -13 -13 -13 -14 -14 -14 -13 -13 -13 -12 -12 -13 -13 -13 -13 -13 -13 -13 -13 -14 -14 -14 -14 -14 -14 -14 -14 -14 -14 -14 -15 -15 -15 -15 -15 -15 -15 -15 -15 -15 -15 -15 -15 -15 -16 -16 -16 -17 -17 -18 -18 -18 -19
-13 -14 -14 -14 -14 -13 -13 -13 -13 -13 -14 -14 -13 -14 -14 -14 -14 -14 -14 -14 -14 -14 -14 -14 -14 -14 -15 -15 -15 -15 -16 -16 -16 -16 -16 -16 -16 -16 -16 -15 -15 -16 -15 -16 -16 -16 -16 -17 -17 -18 -18 -18 -19 -19
-14 -15 -14 -14 -14 -14 -14 -14 -14 -14 -14 -14 -14 -14 -14 -14 -14 -14 -14 -14 -14 -14 -14 -15 -15 -15 -15 -16 -16 -17 -16 -16 -17 -17 -16 -16 -16 -16 -16 -15 -16 -16 -16 -16 -16 -17 -17 -17 -18 -18 -18 -19 -19 -19
-14 -14 -14 -14 -14 -14 -14 -14 -14 -14 -14 -14 -14 -14 -15 -15 -15 -15 -14 -14 -14 -15 -15 -15 -16 -16 -16 -17 -17 -17 -17 -17 -17 -17 -17 -17 -16 -16 -16 -16 -17 -17 -16 -17 -17 -17 -17 -18 -18 -19 -19 -19 -19 -20
-15 -15 -14 -14 -15 -14 -14 -15 -15 -15 -15 -15 -15 -15 -15 -15 -15 -15 -15 -16 -16 -16 -16 -16 -16 -16 -16 -17 -17 -17 -17 -16 -17 -17 -17 -17 -16 -16 -17 -17 -18 -17 -17 -17 -17 -18 -18 -19 -19 -19 -19 -20 -20 -20
Height
2956 2960 2964 2966 2967 2969 2971 2972 2972 2972 2972 2972 2972 2971 2971 2970 2970 2970 2970 2969 2968 2966 2965 2963 2961 2958 2957 2954 2951 2950 2948 2945 2942 2940 2939 2938 2935 2931 2930 2929 2927 2927 2927 2927 2928 2927 2930 2927 2927 2928 2930 2928 2930 2929
2956 2959 2961 2963 2965 2968 2969 2970 2970 2970 2970 2970 2969 2968 2968 2968 2968 2968 2968 2967 2965 2965 2964 2962 2960 2959 2957 2954 2952 2950 2950 2948 2946 2944 2944 2941 2935 2932 2932 2930 2924 2928 2928 2929 2930 2929 2929 2927 2931 2931 2932 2932 2932 2931
2953 2956 2958 2961 2963 2965 2967 2968 2968 2968 2968 2967 2966 2965 2965 2965 2965 2965 2965 2964 2963 2961 2961 2960 2958 2956 2954 2953 2952 2951 2950 2949 2947 2946 2944 2943 2940 2937 2934 2933 2931 2931 2929 2928 2930 2929 2929 2928 2928 2930 2932 2932 2931 2930
2950 2953 2956 2959 2961 2963 2964 2965 2966 2966 2966 2965 2964 2963 2962 2962 2962 2962 2962 2962 2961 2960 2958 2959 2955 2955 2953 2952 2951 2950 2949 2948 2947 2946 2944 2943 2941 2940 2938 2938 2937 2935 2933 2932 2931 2930 2930 2929 2933 2932 2930 2930 2928 2926
2947 2950 2954 2956 2959 2961 2962 2963 2964 2964 2964 2963 2962 2961 2960 2960 2959 2959 2960 2959 2959 2961 2957 2955 2954 2953 2952 2952 2951 2949 2949 2948 2946 2946 2944 2943 2942 2941 2939 2939 2938 2937 2935 2934 2933 2933 2933 2933 2930 2929 2927 2926 2924 2921
2944 2947 2951 2954 2956 2958 2960 2961 2962 2962 2962 2961 2960 2959 2958 2958 2957 2957 2958 2958 2957 2956 2955 2953 2953 2952 2952 2951 2951 2949 2948 2947 2945 2944 2943 2942 2942 2942 2940 2940 2940 2938 2937 2935 2935 2934 2932 2930 2929 2927 2926 2923 2921 2917
2940 2943 2947 2950 2953 2955 2957 2959 2960 2960 2960 2960 2959 2958 2957 2955 2955 2956 2957 2956 2956 2955 2954 2952 2951 2951 2951 2951 2950 2949 2947 2946 2945 2943 2942 2941 2941 2941 2939 2938 2937 2936 2936 2935 2932 2931 2931 2928 2927 2925 2922 2920 2918 2916
2936 2939 2943 2946 2949 2952 2954 2956 2957 2958 2958 2958 2958 2956 2955 2954 2953 2953 2953 2953 2953 2954 2953 2951 2951 2950 2949 2948 2948 2947 2946 2945 2943 2942 2941 2939 2939 2939 2937 2937 2935 2935 2932 2930 2929 2927 2927 2925 2924 2922 2920 2918 2915 2912
2933 2936 2939 2942 2945 2947 2950 2951 2953 2955 2955 2956 2956 2955 2954 2953 2952 2951 2951 2951 2951 2954 2951 2949 2949 2949 2948 2947 2946 2945 2943 2942 2941 2939 2939 2939 2936 2936 2934 2934 2933 2931 2928 2925 2924 2923 2923 2922 2921 2919 2918 2915 2912 2909
2929 2933 2936 2938 2941 2943 2946 2948 2950 2951 2952 2953 2953 2954 2952 2951 2950 2950 2948 2948 2947 2947 2946 2946 2947 2946 2948 2946 2944 2944 2941 2940 2938 2937 2936 2934 2933 2932 2932 2931 2929 2927 2925 2923 2922 2922 2921 2920 2918 2916 2914 2912 2909 2906
2925 2928 2932 2934 2937 2940 2942 2944 2946 2948 2948 2950 2950 2950 2950 2948 2947 2946 2946 2946 2946 2945 2943 2943 2944 2945 2945 2945 2943 2942 2940 2938 2936 2935 2934 2931 2930 2930 2929 2928 2927 2924 2922 2921 2920 2919 2918 2916 2914 2913 2910 2908 2905 2902
2920 2924 2927 2930 2933 2935 2938 2940 2942 2944 2946 2946 2947 2946 2946 2945 2943 2945 2943 2943 2942 2942 2942 2942 2942 2943 2943 2943 2941 2940 2938 2936 2933 2932 2930 2926 2925 2926 2926 2925 2924 2922 2921 2920 2918 2916 2914 2912 2911 2908 2905 2903 2900 2897
2916 2920 2923 2926 2929 2931 2933 2936 2938 2940 2942 2943 2943 2943 2941 2941 2940 2938 2938 2938 2939 2939 2940 2940 2941 2941 2941 2941 2940 2938 2935 2932 2931 2928 2924 2922 2922 2923 2922 2922 2921 2920 2919 2917 2915 2913 2911 2908 2905 2903 2900 2898 2895 2892
2912 2915 2918 2921 2925 2927 2930 2931 2933 2935 2937 2939 2939 2938 2937 2933 2932 2932 2934 2936 2937 2937 2937 2938 2938 2938 2938 2938 2937 2935 2933 2931 2928 2925 2922 2920 2920 2920 2920 2919 2918 2917 2915 2913 2910 2908 2905 2902 2900 2897 2894 2891 2888 2886
2907 2911 2914 2917 2920 2923 2925 2927 2929 2931 2933 2935 2935 2931 2927 2928 2929 2930 2932 2933 2935 2934 2935 2935 2935 2935 2934 2935 2933 2932 2930 2926 2924 2921 2919 2918 2917 2916 2916 2915 2914 2911 2909 2906 2903 2900 2897 2894 2891 2889 2886 2883 2880 2878
2904 2907 2910 2913 2916 2918 2921 2923 2925 2927 2928 2930 2928 2924 2924 2925 2926 2927 2928 2929 2931 2931 2930 2932 2931 2931 2930 2930 2928 2926 2924 2921 2920 2918 2917 2916 2915 2914 2914 2911 2909 2905 2902 2898 2895 2891 2888 2885 2881 2878 2876 2874 2871 2869
2901 2904 2907 2909 2912 2915 2917 2919 2921 2922 2923 2921 2919 2920 2920 2921 2922 2922 2923 2925 2927 2927 2927 2928 2927 2926 2926 2923 2920 2919 2917 2917 2915 2913 2912 2911 2910 2909 2908 2906 2903 2899 2895 2891 2888 2885 2881 2878 2874 2870 2868 2865 2863 2861
2898 2901 2903 2906 2908 2911 2913 2914 2916 2916 2914 2915 2916 2917 2916 2917 2917 2917 2918 2919 2921 2921 2922 2922 2922 2919 2918 2914 2913 2915 2914 2913 2911 2909 2909 2907 2905 2903 2902 2899 2897 2894 2890 2887 2883 2880 2875 2872 2868 2864 2860 2857 2855 2853
2894 2897 2899 2902 2905 2907 2909 2910 2911 2909 2908 2910 2911 2911 2911 2910 2911 2911 2912 2913 2914 2915 2916 2915 2914 2906 2905 2907 2909 2909 2909 2907 2905 2904 2904 2902 2900 2898 2896 2894 2891 2889 2886 2882 2878 2874 2870 2866 2861 2857 2854 2851 2849 2847
2890 2892 2896 2898 2900 2902 2904 2905 2905 2904 2904 2905 2905 2906 2905 2906 2906 2906 2906 2907 2907 2907 2906 2903 2899 2900 2902 2904 2903 2903 2902 2900 2900 2899 2897 2897 2895 2892 2890 2888 2886 2883 2880 2877 2873 2869 2865 2862 2858 2854 2851 2848 2846 2845
2884 2887 2889 2892 2895 2897 2898 2897 2898 2898 2899 2899 2900 2900 2901 2901 2901 2900 2899 2900 2898 2896 2895 2894 2895 2896 2897 2897 2896 2895 2894 2893 2893 2892 2891 2890 2888 2886 2884 2882 2880 2878 2875 2872 2868 2864 2861 2857 2854 2852 2849 2847 2844 2843
2878 2881 2884 2886 2889 2890 2890 2891 2893 2893 2895 2894 2895 2895 2895 2894 2894 2894 2893 2892 2889 2889 2890 2889 2888 2887 2885 2885 2886 2885 2885 2883 2882 2883 2884 2883 2881 2879 2878 2876 2875 2873 2870 2867 2864 2861 2858 2855 2852 2850 2848 2846 2843 2841
2875 2878 2880 2881 2884 2883 2883 2885 2886 2887 2888 2888 2889 2888 2888 2888 2888 2888 2886 2885 2884 2885 2883 2882 2881 2879 2876 2876 2875 2875 2874 2874 2874 2875 2876 2876 2875 2873 2872 2871 2870 2868 2865 2862 2860 2857 2854 2852 2849 2848 2847 2845 2842 2840
2870 2873 2874 2875 2875 2875 2876 2877 2878 2881 2881 2883 2883 2882 2882 2883 2882 2880 2878 2879 2878 2878 2877 2875 2873 2871 2870 2869 2866 2866 2866 2866 2867 2867 2867 2868 2868 2867 2866 2866 2864 2863 2860 2858 2856 2854 2851 2849 2847 2846 2845 2843 2841 2839
2866 2868 2869 2865 2866 2868 2869 2870 2872 2874 2875 2877 2877 2877 2876 2878 2875 2873 2872 2873 2871 2871 2871 2870 2868 2867 2865 2863 2860 2859 2859 2860 2860 2861 2861 2862 2862 2861 2860 2860 2859 2858 2856 2854 2852 2850 2848 2847 2844 2843 2841 2840 2838 2837
2856 2857 2857 2854 2856 2861 2862 2863 2865 2867 2869 2871 2871 2871 2870 2870 2869 2866 2865 2866 2866 2866 2866 2865 2864 2862 2861 2859 2857 2855 2854 2854 2854 2855 2856 2857 2856 2856 2854 2854 2854 2853 2851 2850 2848 2846 2845 2843 2842 2839 2838 2837 2836 2834
2844 2842 2843 2847 2850 2852 2855 2857 2860 2861 2862 2863 2864 2865 2866 2864 2861 2860 2861 2861 2861 2861 2860 2859 2858 2856 2854 2853 2853 2852 2850 2850 2850 2851 2851 2851 2850 2849 2849 2849 2848 2847 2846 2845 2844 2842 2841 2840 2839 2837 2836 2834 2833 2832
2832 2834 2836 2843 2844 2847 2849 2850 2852 2854 2855 2857 2858 2858 2858 2856 2855 2855 2855 2856 2856 2854 2853 2852 2851 2850 2848 2847 2847 2847 2846 2845 2845 2845 2846 2846 2845 2844 2845 2843 2842 2842 2841 2840 2839 2838 2837 2836 2835 2834 2833 2831 2830 2829
2823 2826 2831 2834 2839 2840 2840 2842 2845 2847 2849 2850 2851 2851 2851 2850 2850 2849 2849 2849 2848 2847 2845 2844 2843 2842 2842 2841 2840 2840 2840 2840 2840 2840 2840 2840 2840 2839 2839 2839 2837 2837 2836 2835 2835 2834 2833 2832 2831 2830 2829 2828 2827 2826
2816 2820 2824 2826 2828 2829 2831 2836 2840 2842 2842 2842 2842 2843 2843 2843 2843 2841 2839 2839 2840 2839 2836 2835 2835 2834 2834 2833 2833 2833 2833 2833 2833 2833 2833 2833 2834 2833 2833 2832 2831 2831 2831 2830 2830 2829 2828 2828 2827 2827 2826 2825 2824 2823
2811 2815 2817 2818 2820 2822 2826 2830 2831 2832 2832 2833 2834 2834 2834 2834 2834 2833 2831 2829 2830 2828 2827 2826 2825 2824 2823 2821 2821 2821 2822 2824 2823 2823 2823 2823 2824 2824 2824 2825 2824 2825 2825 2825 2825 2824 2824 2824 2824 2823 2822 2821 2820 2819
2803 2805 2809 2812 2814 2817 2820 2821 2822 2822 2824 2824 2825 2825 2825 2824 2823 2821 2821 2821 2820 2819 2817 2815 2814 2813 2812 2811 2812 2813 2813 2814 2814 2814 2814 2815 2816 2816 2816 2817 2817 2819 2819 2820 2820 2820 2820 2820 2820 2819 2818 2817 2816 2815
2798 2801 2803 2805 2807 2809 2812 2815 2815 2815 2816 2817 2817 2817 2817 2817 2814 2813 2813 2812 2810 2808 2807 2805 2803 2803 2802 2801 2801 2803 2805 2806 2807 2807 2807 2809 2810 2811 2811 2810 2812 2813 2814 2815 2815 2815 2816 2816 2816 2815 2814 2813 2812 2811
Wind_Speed
15 14 13 11 9 6 4 3 1 2 4 6 7 7 8 8 8 8 9 11 13 15 13 15 12 16 16 14 15 17 16 16 13 13 8 9 9 8 9 11 10 5 3 3 5 6 4 5 2 2 8 9 8 3
16 15 12 10 8 6 4 3 2 4 6 8 9 9 9 9 9 9 9 11 15 15 14 8 9 10 11 14 14 11 11 12 10 10 10 8 16 8 17 10 6 4 1 2 3 4 8 16 7 9 2 7 5 7
15 14 12 10 9 7 5 4 4 5 7 8 10 10 10 10 9 9 9 11 14 16 8 6 7 10 12 15 12 11 8 8 11 12 13 10 12 16 14 14 16 17 11 5 5 13 7 2 12 11 5 4 12 15
16 14 12 11 10 7 6 5 4 6 7 8 9 10 10 9 9 9 9 10 10 12 9 7 10 9 9 11 8 9 6 9 9 10 11 11 13 13 16 12 13 15 15 12 13 14 13 18 12 8 10 14 14 14
16 15 14 12 10 8 7 5 5 5 7 8 9 9 9 8 7 7 7 9 6 8 14 12 4 6 5 8 9 8 8 9 11 8 8 9 8 12 8 9 17 16 13 11 10 7 9 8 3 6 13 19 18 16
18 17 15 13 12 10 8 6 5 4 4 6 8 8 8 7 7 6 5 4 3 10 14 11 8 6 5 10 7 8 7 8 10 10 10 7 5 8 7 5 9 8 11 10 6 7 1 5 5 12 18 16 15 16
20 19 17 15 14 12 9 8 6 4 2 3 6 8 8 7 6 5 5 5 8 9 13 10 5 4 6 8 8 9 8 11 11 13 8 6 4 9 8 10 7 5 6 6 12 14 9 11 10 12 13 13 14 16
22 21 19 17 16 14 12 11 9 6 4 3 6 8 10 8 6 6 5 8 9 9 9 4 4 5 6 7 8 9 9 11 12 10 9 9 6 6 5 7 13 15 21 20 12 10 7 9 8 10 11 13 15 18
21 21 20 19 18 17 15 14 12 10 8 6 7 9 10 8 7 4 6 8 11 10 6 7 8 4 5 9 10 9 9 12 9 10 10 8 9 7 12 13 13 19 18 13 10 4 8 8 10 10 11 15 17 19
21 21 21 20 19 18 17 16 14 13 12 11 10 9 7 10 10 7 8 8 7 9 13 13 8 7 5 8 9 9 5 4 7 7 5 10 13 12 11 14 17 18 12 11 11 9 8 10 11 14 16 18 20 21
18 19 20 19 18 18 17 17 16 15 15 14 13 12 12 13 12 6 4 5 4 4 5 5 7 5 6 9 11 5 6 5 4 4 9 5 7 12 12 10 10 11 10 11 7 8 12 14 16 18 21 23 23 24
19 18 17 17 17 18 18 17 18 18 16 14 13 14 15 14 5 5 5 5 6 3 6 5 4 7 9 10 9 6 7 4 6 6 7 5 12 12 8 8 9 11 12 11 12 13 16 19 20 21 23 24 25 25
21 20 18 17 15 15 15 16 17 18 17 16 14 12 7 6 9 7 8 5 4 5 5 6 6 7 9 10 6 6 4 7 7 6 6 9 12 10 9 9 9 13 14 14 15 16 17 19 20 21 22 23 23 23
20 20 19 18 17 16 14 13 15 15 15 13 10 9 7 7 8 7 7 2 5 7 10 7 14 9 10 9 7 5 6 5 5 5 9 13 13 11 10 11 14 17 20 22 23 22 23 24 25 24 26 26 25 24
18 18 18 18 17 16 16 15 13 13 14 11 8 7 11 8 10 9 12 11 11 12 13 13 15 17 16 7 6 6 4 5 5 6 10 11 13 16 16 17 20 24 26 25 25 27 28 30 30 30 28 28 28 26
16 15 14 15 16 16 16 16 14 14 16 14 13 10 8 10 10 15 16 15 14 14 13 13 11 7 8 6 6 8 5 6 6 10 13 14 16 19 20 21 25 27 29 30 27 26 27 26 27 28 27 26 28 28
12 12 14 14 15 16 16 17 17 17 10 11 10 11 15 16 16 16 15 18 16 16 15 12 7 8 4 7 9 11 18 18 22 23 22 22 23 20 19 24 25 30 28 27 27 26 26 26 28 29 26 23 24 23
13 13 14 14 15 16 17 17 17 14 19 21 19 15 18 17 17 17 18 17 16 18 19 22 21 18 14 13 17 13 14 18 22 23 23 25 27 27 27 28 29 27 26 25 25 26 26 27 27 27 27 26 23 21
11 12 14 15 16 17 17 17 20 17 22 19 18 16 17 17 17 16 15 16 20 20 21 23 18 24 27 27 30 26 26 29 31 31 31 28 29 30 29 28 25 25 25 25 26 26 26 25 25 25 24 21 18 14
15 17 17 17 19 20 18 15 21 20 19 17 16 16 15 13 13 14 16 15 17 23 27 36 36 36 34 23 18 20 23 23 23 23 24 25 27 26 25 25 24 24 25 25 25 25 24 22 20 18 16 14 13 12
21 20 23 24 23 24 24 13 16 14 14 16 16 15 14 15 18 18 17 16 20 25 27 26 23 24 31 35 37 38 38 37 36 32 31 30 27 26 26 24 23 23 24 24 23 24 22 18 16 15 14 13 12 11
20 19 21 22 23 24 28 27 22 22 23 24 22 22 23 23 20 18 15 20 25 21 18 14 16 21 24 26 25 29 35 36 37 35 29 26 26 25 22 22 21 22 23 23 22 21 19 15 12 11 12 13 13 13
18 17 17 20 19 20 18 21 23 26 26 25 25 24 25 22 19 16 16 16 19 18 16 18 19 19 22 23 24 26 29 29 31 27 26 27 24 21 19 18 18 20 21 21 20 20 17 14 10 10 11 12 12 12
20 21 23 15 17 14 16 18 23 22 22 21 22 23 24 21 19 20 23 16 19 17 16 18 18 18 17 18 21 23 26 25 22 23 25 22 20 18 16 17 18 19 19 19 18 18 16 15 11 10 10 10 11 12
29 22 15 16 17 19 17 18 21 22 23 20 20 19 19 18 18 23 25 18 18 14 14 16 14 14 15 18 20 18 19 20 20 20 20 18 17 15 17 19 19 18 18 17 16 16 14 14 12 11 11 12 13 14
29 20 16 15 22 26 24 22 25 26 24 24 23 19 18 16 18 12 19 11 13 13 16 17 17 17 21 21 15 13 12 15 18 18 16 13 13 17 19 19 19 16 15 15 15 15 13 12 12 11 11 11 12 13
31 21 28 30 22 18 21 22 23 21 16 13 16 18 16 11 11 16 12 12 13 14 17 20 22 27 26 17 13 11 12 14 15 15 15 15 16 14 14 17 17 16 15 15 14 14 13 12 12 11 11 11 11 12
36 40 41 27 21 24 24 22 20 22 21 20 19 18 10 11 16 19 19 23 24 23 24 25 26 23 19 16 14 14 16 16 15 15 16 13 9 9 12 15 17 16 15 15 14 13 12 12 12 12 11 11 11 11
39 38 35 35 30 29 28 26 24 23 21 20 21 23 28 29 28 27 27 27 28 27 27 29 28 25 23 21 19 18 18 19 19 19 19 17 13 14 16 18 19 17 16 15 14 12 12 12 11 11 11 11 11 12
45 40 37 35 34 37 38 33 28 22 21 24 27 27 27 26 28 32 32 34 32 32 31 29 27 27 28 28 27 26 26 27 28 28 28 26 24 23 21 23 22 18 16 14 15 13 12 12 11 11 11 12 12 12
38 35 31 33 36 35 31 27 26 26 26 27 26 28 27 28 31 34 36 38 35 31 30 30 31 30 31 31 29 29 28 26 26 27 26 24 25 27 27 26 19 16 15 14 14 13 12 11 11 11 12 12 13 14
23 29 29 35 35 33 28 27 26 24 21 22 22 22 23 25 27 28 28 29 30 31 32 32 30 28 27 24 22 22 23 22 22 22 22 20 20 20 18 18 15 14 14 13 13 12 11 11 11 11 11 12 13 14
25 22 22 24 25 25 25 22 21 21 20 20 20 20 22 25 29 32 31 32 31 29 30 30 28 25 25 26 26 25 24 15 22 20 19 17 17 16 16 15 12 13 13 12 12 11 11 11 11 11 12 13 14 15
Wind_Direction
192 193 192 187 183 185 195 207 250 314 323 314 313 311 308 308 302 301 310 316 319 329 343 340 344 355 349 355 342 345 351 355 3 11 359 349 326 327 317 310 314 309 336 12 25 227 261 257 336 102 122 93 84 126
195 193 190 187 189 199 213 236 280 314 320 318 317 314 304 300 303 301 297 301 306 317 330 330 342 339 348 6 345 357 353 354 350 349 355 347 326 328 21 36 56 27 338 345 8 8 109 80 54 62 80 295 318 311
193 193 192 193 198 207 222 251 285 310 317 317 320 318 313 301 291 301 308 304 311 320 338 328 331 348 351 349 348 349 351 342 344 340 348 355 349 344 353 20 31 26 34 64 332 124 131 191 133 172 114 299 315 311
196 195 196 201 206 214 232 259 290 312 320 321 323 321 319 309 295 289 313 311 314 323 333 6 316 327 337 349 347 353 331 329 318 320 339 356 352 351 348 3 39 41 28 23 56 52 28 16 17 337 289 309 324 328
198 199 203 207 213 220 236 260 290 317 325 329 330 330 324 314 302 285 295 309 308 324 326 356 354 326 359 358 336 342 334 321 319 344 333 332 357 4 34 57 41 29 22 26 64 18 358 22 2 296 324 328 331 329
201 203 207 212 219 225 235 253 274 301 326 340 344 339 328 318 309 288 278 293 313 331 334 344 357 9 342 347 345 339 343 335 338 341 341 328 342 329 342 336 354 35 2 3 322 333 339 252 256 290 308 331 339 335
205 207 210 214 219 225 232 241 250 257 293 349 357 349 335 318 308 282 264 278 303 311 320 322 4 17 279 322 334 336 323 318 312 319 321 303 341 330 314 320 13 358 300 306 307 316 245 257 280 301 336 351 346 345
211 212 213 216 219 223 227 232 235 232 243 310 343 350 342 321 299 287 273 265 271 290 299 282 331 326 331 331 309 320 306 305 314 307 304 302 297 288 270 263 283 300 312 305 283 281 283 278 290 312 340 349 348 348
220 218 218 219 221 224 226 227 229 229 238 269 312 333 343 340 306 273 264 261 262 265 265 242 265 292 338 310 320 317 307 296 299 298 297 280 289 265 271 286 302 315 325 309 325 324 259 288 307 323 339 341 342 343
221 224 224 223 225 227 228 229 229 232 239 255 283 307 318 336 327 290 278 280 271 255 252 260 251 246 287 313 328 323 293 287 288 316 277 270 285 273 281 302 302 313 314 287 287 287 284 299 312 315 324 335 335 334
219 225 227 229 230 231 230 230 231 234 240 253 273 291 304 317 316 280 246 238 240 254 268 303 251 254 289 297 314 288 290 280 262 260 271 256 249 272 284 305 315 316 298 291 304 291 294 299 304 310 314 316 319 320
216 220 224 226 228 230 231 232 235 240 248 258 270 284 295 295 243 213 230 218 218 242 269 283 295 289 282 303 304 287 265 246 247 275 273 243 263 286 280 300 326 337 334 316 295 289 289 292 303 303 304 307 308 309
218 221 223 226 228 231 234 234 237 241 249 257 269 284 263 238 213 215 205 209 220 222 235 243 285 271 258 276 279 265 258 242 266 245 244 257 277 285 283 290 301 317 321 318 311 306 303 304 304 305 305 306 308 309
219 221 223 223 225 228 232 234 234 238 243 251 257 238 242 223 227 224 179 30 310 252 251 261 246 259 258 283 260 258 256 272 255 251 256 277 288 283 281 284 293 304 310 308 305 303 299 296 295 297 299 300 300 300
211 216 220 221 222 224 226 230 231 232 231 228 236 236 235 234 230 184 190 209 223 241 249 251 251 264 270 269 244 250 246 243 239 255 294 296 294 296 302 303 305 313 313 309 305 302 300 298 296 294 292 291 291 293
207 211 214 217 218 219 222 226 229 230 230 231 234 237 249 251 254 239 242 233 241 248 254 248 255 254 235 225 224 226 231 226 263 281 300 303 296 302 305 304 309 311 313 312 309 306 305 304 302 299 297 295 292 290
212 208 213 215 215 216 219 223 227 230 228 224 247 255 257 264 267 263 255 246 249 248 236 244 229 228 234 236 223 232 243 256 273 287 297 300 302 309 311 310 312 319 321 320 319 319 313 309 306 304 300 294 290 296
209 209 212 212 214 216 219 226 229 235 248 258 267 277 273 272 266 259 262 255 250 244 236 243 255 242 230 241 243 254 263 269 275 284 293 306 308 308 313 312 316 318 319 321 321 318 316 314 313 310 308 307 304 303
214 222 221 216 218 221 225 233 236 247 258 270 277 281 278 273 272 270 261 256 251 241 230 240 246 251 253 264 260 260 262 271 280 285 291 296 299 302 302 307 313 317 321 323 324 322 322 321 316 317 318 317 316 303
243 234 225 220 221 223 224 235 245 248 261 272 276 280 274 276 278 273 268 265 258 243 237 236 252 255 258 264 257 267 276 277 280 285 291 293 300 303 305 306 314 319 323 324 323 321 321 323 324 328 330 329 328 316
245 240 231 228 235 236 231 230 238 252 255 259 272 276 274 291 295 289 277 269 263 256 264 278 286 286 277 272 268 266 271 273 277 279 286 293 292 295 300 308 314 321 320 321 322 323 325 327 338 342 344 342 330 322
232 231 230 234 239 244 242 237 241 252 260 266 270 279 288 292 296 291 282 264 272 289 296 284 287 281 277 273 267 267 264 263 267 275 277 287 290 292 296 299 309 314 315 319 321 322 326 328 341 346 347 346 346 343
221 222 227 231 233 235 248 245 243 249 255 264 276 283 285 291 292 293 274 279 286 309 290 287 293 288 281 276 267 262 265 268 269 267 271 280 283 280 285 297 306 308 313 317 320 323 324 323 333 335 335 338 342 344
216 217 217 226 227 236 239 229 243 245 252 257 266 270 278 285 291 279 275 295 300 304 304 306 304 304 290 293 286 268 265 271 275 272 270 274 272 275 290 303 306 308 311 315 317 319 320 318 318 317 319 327 327 331
214 219 219 221 221 223 226 233 236 244 249 258 262 267 272 284 272 271 281 301 298 304 310 309 307 314 313 302 297 286 274 266 269 270 270 267 267 279 290 295 301 304 308 309 312 314 315 314 314 311 311 315 315 319
218 222 225 223 219 228 234 234 246 254 259 260 264 267 268 266 261 259 286 305 300 293 297 292 287 297 316 312 311 298 275 268 263 262 259 259 264 275 281 290 296 301 298 301 305 307 310 312 315 316 318 320 317 319
215 219 226 226 223 225 229 243 249 249 249 244 250 255 259 245 254 271 289 298 294 293 292 295 294 295 304 297 299 298 277 272 266 261 256 262 274 281 285 292 296 298 299 298 301 302 304 305 305 308 322 321 321 320
225 225 232 229 230 235 237 237 236 234 244 247 249 242 235 246 268 278 288 294 295 293 292 294 301 305 300 291 285 282 277 266 256 261 269 258 270 295 304 298 294 295 291 292 294 295 297 298 297 302 307 311 316 318
228 229 233 235 234 237 239 237 240 248 259 255 259 266 269 275 281 282 280 283 289 290 294 296 297 297 294 291 286 283 275 264 260 260 266 273 283 298 302 301 292 289 285 286 286 287 291 292 295 297 300 304 306 307
235 237 236 239 242 243 248 256 264 269 267 268 269 270 269 268 272 276 276 282 284 288 288 286 287 288 288 285 279 271 263 262 263 268 273 277 279 279 289 293 284 276 275 276 279 282 284 287 290 292 295 298 301 301
235 231 236 243 247 251 255 262 261 261 264 268 268 266 267 265 262 265 271 278 285 284 281 283 284 285 283 279 274 272 270 269 272 275 275 272 269 270 271 275 268 262 266 268 270 274 278 282 282 284 289 293 299 302
230 229 234 238 242 248 250 251 260 263 264 264 266 266 267 270 274 275 277 281 284 285 286 287 287 285 280 267 264 275 278 275 273 275 267 266 267 268 266 263 249 253 258 262 265 267 272 274 276 281 286 292 297 302
226 225 223 226 234 241 248 251 250 251 255 261 262 262 267 275 274 277 281 282 281 278 278 279 281 279 275 272 263 257 253 259 268 269 258 259 263 263 272 255 238 246 252 256 259 263 266 269 274 280 286 292 299 305